Date String (YYYY-MM-DD hh:mm:ss) UTC,Instrument flags,Ambient pressure (hPa),Sample flow (lpm),Bypass flow (lpm),Sample temperature (°C),Ambient temperature (°C),ASC tube jacket temperature (°C),LED temperature (°C),Box temperature (°C),Sample RH (%),Span deviation,Mass concentration (μg/m³),Mass concentration (μg/m³),Mass concentration (μg/m³)
DateTimeUTC,F1_M11,P_M11,Q1_M11,Q2_M11,T1_M11,T2_M11,T3_M11,T4_M11,T5_M11,U1_M11,ZSPAN_M11,X0_M11,X2_M11,X1_M11
2023-05-29 15:00:00,,0829.6,5.00,0.00,29.4,27.9,00.0,37.7,31.0,22.6,0000.0,0008.80,0004.23,0003.46
2023-05-29 15:01:00,,0829.6,5.00,0.00,29.4,27.9,00.0,37.7,31.0,22.4,0000.0,0008.72,0004.20,0003.44
2023-05-29 15:02:00,,0829.6,5.00,0.00,29.4,27.9,00.0,37.7,31.0,22.6,0000.0,0008.69,0004.17,0003.42
2023-05-29 15:03:00,,0829.6,5.00,0.00,29.4,27.9,00.0,37.7,31.0,24.0,0000.0,0008.79,0004.15,0003.41
2023-05-29 15:04:00,,0829.6,5.01,0.00,29.4,27.9,00.0,37.7,31.0,24.3,0000.0,0008.80,0004.15,0003.41
2023-05-29 15:05:00,,0829.6,5.00,0.00,29.4,27.9,00.0,37.7,31.0,25.5,0000.0,0008.42,0004.19,0003.41
2023-05-29 15:06:00,,0829.6,5.00,0.00,29.4,28.0,00.0,37.8,31.1,26.1,0000.0,0008.56,0004.25,0003.42
2023-05-29 15:07:00,,0829.6,5.00,0.00,29.5,28.0,00.0,37.8,31.1,25.3,0000.0,0008.53,0004.27,0003.43
2023-05-29 15:08:00,,0829.6,5.00,0.00,29.5,28.0,00.0,37.8,31.1,24.8,0000.0,0008.76,0004.27,0003.45
2023-05-29 15:09:00,,0829.6,5.00,0.00,29.5,28.0,00.0,37.8,31.1,24.4,0000.0,0009.36,0004.30,0003.46
2023-05-29 15:10:00,,0829.6,5.00,0.00,29.5,28.0,00.0,37.8,31.1,25.2,0000.0,0009.65,0004.35,0003.47
2023-05-29 15:11:00,,0829.6,5.00,0.00,29.5,28.0,00.0,37.8,31.1,25.9,0000.0,0009.79,0004.36,0003.49
2023-05-29 15:12:00,,0829.6,5.00,0.00,29.5,28.0,00.0,37.8,31.1,25.9,0000.0,0009.75,0004.39,0003.51
2023-05-29 15:13:00,,0829.6,5.00,0.00,29.5,28.0,00.0,37.8,31.1,26.1,0000.0,0009.68,0004.41,0003.52
2023-05-29 15:14:00,,0829.6,5.00,0.00,29.5,28.1,00.0,37.8,31.1,25.8,0000.0,0009.61,0004.43,0003.52
2023-05-29 15:15:00,,0829.6,5.00,0.00,29.5,28.1,00.0,37.8,31.2,25.9,0000.0,0009.60,0004.46,0003.52
2023-05-29 15:16:00,,0829.6,5.00,0.00,29.5,28.1,00.0,37.9,31.2,26.7,0000.0,0009.80,0004.47,0003.53
2023-05-29 15:17:00,,0829.6,5.00,0.00,29.6,28.1,00.0,37.9,31.2,25.8,0000.0,0009.72,0004.46,0003.53
2023-05-29 15:18:00,,0829.6,5.01,0.00,29.6,28.2,00.0,37.9,31.2,25.4,0000.0,0009.67,0004.46,0003.54
2023-05-29 15:19:00,,0829.6,5.00,0.00,29.6,28.2,00.0,37.9,31.2,25.4,0000.0,0009.93,0004.52,0003.55
2023-05-29 15:20:00,,0829.6,5.01,0.00,29.6,28.2,00.0,37.9,31.2,25.1,0000.0,0009.87,0004.52,0003.56
2023-05-29 15:21:00,,0829.6,5.00,0.00,29.6,28.2,00.0,37.9,31.3,25.5,0000.0,0010.02,0004.52,0003.56
2023-05-29 15:22:00,,0829.5,5.00,0.00,29.6,28.2,00.0,37.9,31.3,24.8,0000.0,0010.44,0004.53,0003.56
2023-05-29 15:23:00,,0829.5,5.00,0.00,29.6,28.2,00.0,37.9,31.3,24.2,0000.0,0010.92,0004.51,0003.56
2023-05-29 15:24:00,,0829.5,5.00,0.00,29.6,28.2,00.0,37.9,31.3,23.1,0000.0,0011.44,0004.46,0003.55
2023-05-29 15:25:00,,0829.5,5.00,0.00,29.7,28.2,00.0,37.9,31.3,22.8,0000.0,0011.43,0004.43,0003.55
2023-05-29 15:26:00,,0829.5,4.99,0.00,29.7,28.2,00.0,38.0,31.3,24.4,0000.0,0011.53,0004.40,0003.56
2023-05-29 15:27:00,,0829.5,4.99,0.00,29.7,28.2,00.0,38.0,31.3,25.2,0000.0,0012.42,0004.42,0003.57
2023-05-29 15:28:00,,0829.5,5.00,0.00,29.7,28.2,00.0,38.0,31.3,24.9,0000.0,0012.63,0004.46,0003.58
2023-05-29 15:29:00,,0829.5,5.00,0.00,29.7,28.3,00.0,38.0,31.3,25.3,0000.0,0012.92,0004.51,0003.59
2023-05-29 15:30:00,,0829.4,5.00,0.00,29.7,28.3,00.0,38.0,31.3,25.5,0000.0,0013.21,0004.49,0003.59
2023-05-29 15:31:00,,0829.4,5.00,0.00,29.7,28.3,00.0,38.0,31.3,25.8,0000.0,0012.82,0004.49,0003.59
2023-05-29 15:32:00,,0829.4,5.00,0.00,29.7,28.3,00.0,38.0,31.3,24.9,0000.0,0013.44,0004.55,0003.60
2023-05-29 15:33:00,,0829.4,5.00,0.00,29.7,28.3,00.0,38.0,31.3,24.8,0000.0,0013.01,0004.53,0003.60
2023-05-29 15:34:00,,0829.3,5.00,0.00,29.7,28.3,00.0,38.0,31.3,25.2,0000.0,0012.57,0004.55,0003.61
2023-05-29 15:35:00,,0829.3,5.01,0.00,29.7,28.3,00.0,38.0,31.4,24.2,0000.0,0012.03,0004.62,0003.63
2023-05-29 15:36:00,,0829.4,5.00,0.00,29.8,28.3,00.0,38.1,31.4,24.5,0000.0,0012.36,0004.63,0003.64
2023-05-29 15:37:00,,0829.4,5.00,0.00,29.8,28.4,00.0,38.1,31.4,23.9,0000.0,0012.39,0004.68,0003.65
2023-05-29 15:38:00,,0829.3,5.01,0.00,29.8,28.4,00.0,38.1,31.4,23.9,0000.0,0011.47,0004.73,0003.65
2023-05-29 15:39:00,,0829.3,5.00,0.00,29.8,28.4,00.0,38.1,31.4,23.6,0000.0,0011.44,0004.74,0003.65
2023-05-29 15:40:00,,0829.3,4.99,0.00,29.8,28.4,00.0,38.1,31.4,23.7,0000.0,0011.28,0004.70,0003.63
2023-05-29 15:41:00,,0829.4,5.00,0.00,29.8,28.4,00.0,38.1,31.4,23.6,0000.0,0010.55,0004.67,0003.63
2023-05-29 15:42:00,,0829.4,5.00,0.00,29.8,28.4,00.0,38.1,31.4,22.8,0000.0,0010.37,0004.66,0003.63
2023-05-29 15:43:00,,0829.4,4.99,0.00,29.8,28.4,00.0,38.1,31.4,22.3,0000.0,0009.95,0004.61,0003.62
2023-05-29 15:44:00,,0829.4,5.01,0.00,29.8,28.4,00.0,38.1,31.5,22.0,0000.0,0010.08,0004.63,0003.62
2023-05-29 15:45:00,,0829.4,5.01,0.00,29.9,28.5,00.0,38.2,31.5,21.5,0000.0,0010.14,0004.63,0003.62
2023-05-29 15:46:00,,0829.4,4.99,0.00,29.9,28.5,00.0,38.2,31.5,22.7,0000.0,0010.24,0004.62,0003.62
2023-05-29 15:47:00,,0829.3,4.99,0.00,29.9,28.5,00.0,38.2,31.5,22.7,0000.0,0010.42,0004.60,0003.62
2023-05-29 15:48:00,,0829.4,4.99,0.00,29.9,28.5,00.0,38.2,31.5,23.1,0000.0,0010.33,0004.61,0003.63
2023-05-29 15:49:00,,0829.3,5.00,0.00,29.9,28.5,00.0,38.2,31.5,22.9,0000.0,0010.16,0004.55,0003.63
2023-05-29 15:50:00,,0829.3,5.00,0.00,29.9,28.5,00.0,38.2,31.5,21.9,0000.0,0010.15,0004.49,0003.63
2023-05-29 15:51:00,,0829.3,5.01,0.00,29.9,28.5,00.0,38.2,31.5,21.6,0000.0,0010.39,0004.51,0003.65
2023-05-29 15:52:00,,0829.3,5.01,0.00,29.9,28.5,00.0,38.2,31.5,22.1,0000.0,0010.65,0004.52,0003.65
2023-05-29 15:53:00,,0829.4,5.00,0.00,29.9,28.5,00.0,38.2,31.5,21.4,0000.0,0010.99,0004.51,0003.65
2023-05-29 15:54:00,,0829.3,4.99,0.00,29.9,27.9,00.0,38.2,31.5,22.4,0000.0,0011.19,0004.55,0003.66
2023-05-29 15:55:00,,0829.3,5.01,0.00,29.9,26.5,00.0,38.1,31.3,23.2,0000.0,0010.55,0004.53,0003.66
2023-05-29 15:56:00,,0829.3,5.01,0.00,29.9,26.3,00.0,38.0,31.2,23.5,0000.0,0010.58,0004.55,0003.68
2023-05-29 15:57:00,,0829.4,4.99,0.00,29.8,26.4,00.0,38.0,31.1,24.6,0000.0,0010.56,0004.58,0003.69
2023-05-29 15:58:00,,0829.3,4.99,0.00,29.7,26.7,00.0,38.0,31.1,25.0,0000.0,0010.21,0004.62,0003.70
2023-05-29 15:59:00,,0829.3,5.00,0.00,29.7,26.9,00.0,38.1,31.1,25.7,0000.0,0010.01,0004.60,0003.70
